Regional Weather Roundup
Issued by NWS Kansas City/Pleasant Hill, MO

Home | Current Version | Previous Version | Text Only | Print | Product List | Glossary On
Versions: 1 2 3 4 5 6 7 8 9 10 11 12 13 14 15 16 17 18 19 20 21 22 23 24 25 26 27
000
ASUS43 KEAX 250710
RWREAX

WEATHER ROUNDUP FOR EASTERN KANSAS AND NORTHWEST MISSOURI
NATIONAL WEATHER SERVICE KANSAS CITY/PLEASANT HILL MO
200 AM CDT THU MAY 25 2017

KSZ040-057-103>105-MOZ028-029-037-043-250800-
...KANSAS CITY METROPOLITAN AREA...

CITY           SKY/WX    TMP DP  RH WIND       PRES   REMARKS
K.C. INTL      CLEAR     52  47  83 E3        29.69F
K.C. DOWNTOWN  CLEAR     52  50  93 CALM      29.69F
LEES SUMMIT    CLEAR     52  49  89 CALM      29.70F
OLATHE - IXD   CLEAR     50  48  93 SE3       29.70F
OLATHE - OJC   CLEAR     48  48 100 CALM      29.70S
LAWRENCE       CLEAR     47  47 100 CALM      29.70S

$$

MOZ001>008-011>017-020>025-030>033-038>040-044>046-053-054-250800-
...NORTHERN AND CENTRAL MISSOURI...

CITY           SKY/WX    TMP DP  RH WIND       PRES   REMARKS
ST. JOSEPH     CLEAR     48  48 100 CALM      29.69F
WARRENSBURG    CLEAR     48  46  93 CALM      29.70S FOG
WHITEMAN AFB   CLEAR     51  51 100 W2        29.68F
CLINTON        CLEAR     48  48 100 CALM      29.71S FOG
SEDALIA        CLEAR     54  53  97 W3        29.70F
WARSAW         NOT AVBL
CHILLICOTHE      N/A     48  46  93 CALM      29.70F
KIRKSVILLE     FOG       45  45 100 NW3       29.68F VSB 3/4

$$

MOZ041-047>049-056>058-063>065-088>090-097-250800-
...EASTERN AND SOUTHERN MISSOURI...

CITY           SKY/WX    TMP DP  RH WIND       PRES   REMARKS
ST. LOUIS INTL CLEAR     57  51  80 W7        29.63S
SPIRIT OF STL  CLEAR     54  52  93 W6        29.63S
COLUMBIA       CLEAR     51  50  96 W6        29.67F
JEFFERSON CITY CLEAR     53  49  86 NW3       29.67F
ROLLA          CLEAR     50  49  96 W8        29.67R
OSAGE BEACH    CLEAR     48  47  96 W3        29.70S
SPRINGFIELD    CLEAR     49  48  97 SW3       29.71S
BRANSON        CLEAR     50  50 100 CALM      29.73F
JOPLIN         CLEAR     50  49  96 SE3       29.73S
WEST PLAINS    CLEAR     49  47  93 W6        29.71R

$$

IAZ060-094-KSZ022-034>040-054-083-096-NEZ052-066-093-250800-
...KANSAS...SOUTHEAST NEBRASKA AND IOWA...

CITY           SKY/WX    TMP DP  RH WIND       PRES   REMARKS
TOPEKA         CLEAR     51  51 100 CALM      29.69F
MANHATTAN      CLEAR     46  45  96 CALM      29.67F
EMPORIA        CLEAR     48  46  93 S6        29.70S
CHANUTE        CLEAR     50  46  86 CALM      29.71F
WICHITA        CLEAR     48  44  86 S7        29.69F
OMAHA          CLEAR     53  45  74 SE3       29.67S
LINCOLN        CLEAR     52  44  74 S5        29.67S
FALLS CITY     CLEAR     50  46  86 CALM      29.68S
LAMONI         CLEAR     49  46  90 CALM      29.69S
DES MOINES     CLEAR     50  47  89 CALM      29.68F

$$





USA.gov is the U.S. government's official web portal to all federal, state and local government web resources and services.